Regional Weather Roundup
Issued by NWS

Home | Current Version | Previous Version | Graphics & Text | Print | Product List | Glossary On
Versions: 1 2 3 4 5 6 7 8 9 10 11 12 13 14 15 16 17 18 19 20 21 22 23 24 25 26 27 28 29 30 31 32 33 34 35 36 37 38 39 40 41 42 43 44 45 46 47 48 49 50
000
ASUS43 KLMK 192002
RWRKY
KENTUCKY REGIONAL WEATHER ROUNDUP
NATIONAL WEATHER SERVICE LOUISVILLE KY
400 PM EDT SAT APR 19 2014

NOTE "FAIR" INDICATES FEW OR NO CLOUDS BELOW 12,000 FEET
WITH NO SIGNIFICANT WEATHER AND/OR OBSTRUCTIONS TO VISIBILITY.

KYZ001>023-026-027-061>063-070>075-192100-
WESTERN AND SOUTH CENTRAL KENTUCKY

CITY           SKY/WX    TMP DP  RH WIND       PRES   REMARKS
PADUCAH        SUNNY     78  41  26 NE14      30.18F
HENDERSON      SUNNY     72  41  33 NE9       30.19F
OWENSBORO      SUNNY     74  38  27 NE8       30.19F
HOPKINSVILLE   SUNNY     75  41  29 N8        30.16F
BOWLING GREEN  SUNNY     74  40  29 E12G20    30.17F
GLASGOW        NOT AVBL
$$

KYZ024-025-028>034-038-045-046-053-192100-
NORTH CENTRAL KENTUCKY

CITY           SKY/WX    TMP DP  RH WIND       PRES   REMARKS
LOUISVILLE/SDF MOSUNNY   74  36  25 NE14G20   30.20F
LOUISVILLE/LOU SUNNY     75  37  25 MISG      30.20F
FORT KNOX      SUNNY     74  37  26 NE10      30.18F
$$

KYZ035>037-039>044-047>052-055>060-089>105-192100-
NORTHEAST KENTUCKY

CITY           SKY/WX    TMP DP  RH WIND       PRES   REMARKS
LEXINGTON      SUNNY     73  35  25 NE16      30.21F
COVINGTON      SUNNY     69  34  27 NE12      30.24F
FRANKFORT      SUNNY     72  35  25 E14G22    30.20F
$$

KYZ054-064>069-076>088-106>120-192100-
SOUTHEAST KENTUCKY

CITY           SKY/WX    TMP DP  RH WIND       PRES   REMARKS
JACKSON        SUNNY     74  34  23 NE6       30.17F
LONDON         MOSUNNY   74  36  25 N6G17     30.15F
SOMERSET       NOT AVBL
MIDDLESBORO    NOT AVBL
MONTICELLO     PTCLDY    74  40  29 NE10      30.17F
$$




USA.gov is the U.S. government's official web portal to all federal, state and local government web resources and services.